Temp
-7 -7 -7 -7 -7 -7 -7 -7 -7 -8 -8 -9 -9 -9 -10 -11 -12 -14 -13 -13 -13 -14 -13 -13 -12 -11 -11 -11 -10 -10 -9 -8 -8 -7 -7 -7 -7 -7 -8 -8 -8 -8 -7 -6 -7
-7 -7 -7 -7 -7 -7 -7 -8 -8 -9 -9 -9 -10 -10 -11 -13 -14 -14 -14 -14 -14 -14 -14 -14 -13 -13 -12 -11 -11 -11 -10 -9 -9 -9 -8 -7 -7 -8 -8 -8 -8 -8 -7 -7 -7
-7 -8 -8 -7 -8 -8 -8 -8 -9 -9 -10 -11 -11 -13 -13 -14 -14 -14 -14 -14 -14 -14 -14 -14 -14 -14 -13 -12 -12 -11 -10 -10 -10 -9 -8 -8 -8 -8 -7 -8 -9 -9 -8 -7 -7
-8 -8 -8 -8 -8 -8 -9 -9 -10 -10 -10 -12 -13 -14 -14 -14 -14 -14 -14 -14 -15 -15 -15 -15 -15 -15 -14 -13 -13 -12 -11 -11 -10 -10 -9 -8 -8 -8 -8 -8 -9 -9 -8 -7 -7
-8 -8 -8 -8 -8 -9 -9 -10 -10 -10 -11 -12 -13 -14 -14 -14 -14 -14 -14 -15 -15 -15 -16 -16 -16 -15 -15 -14 -14 -12 -12 -11 -11 -10 -10 -9 -7 -8 -8 -8 -8 -9 -9 -8 -8
-8 -8 -9 -9 -9 -9 -10 -10 -11 -11 -12 -13 -14 -14 -14 -15 -15 -15 -15 -15 -15 -15 -15 -16 -17 -16 -16 -16 -15 -14 -13 -12 -11 -11 -10 -9 -9 -9 -9 -9 -8 -9 -9 -8 -8
-9 -9 -9 -9 -9 -10 -10 -11 -11 -11 -12 -13 -14 -14 -14 -15 -15 -15 -15 -15 -15 -15 -16 -16 -17 -17 -17 -18 -17 -14 -13 -12 -12 -11 -10 -10 -9 -8 -9 -9 -8 -9 -9 -9 -8
-9 -9 -9 -10 -10 -10 -11 -11 -11 -12 -12 -13 -14 -14 -14 -15 -15 -15 -15 -15 -16 -16 -17 -17 -17 -18 -18 -18 -18 -16 -14 -13 -12 -12 -11 -10 -9 -10 -10 -9 -9 -9 -9 -9 -9
-9 -9 -10 -10 -10 -11 -11 -11 -11 -12 -13 -13 -14 -15 -15 -15 -16 -16 -16 -16 -16 -16 -17 -17 -18 -18 -18 -18 -18 -17 -15 -14 -13 -12 -11 -10 -10 -10 -10 -9 -9 -9 -9 -9 -9
-9 -10 -10 -10 -11 -11 -11 -12 -12 -13 -13 -14 -15 -15 -15 -15 -16 -16 -16 -16 -17 -17 -18 -18 -18 -18 -18 -18 -20 -19 -16 -15 -14 -13 -12 -11 -10 -10 -10 -9 -10 -9 -9 -9 -9
-10 -10 -10 -11 -11 -11 -12 -12 -12 -13 -14 -14 -15 -16 -16 -15 -16 -16 -16 -16 -17 -19 -19 -19 -19 -19 -18 -18 -18 -18 -17 -15 -15 -13 -12 -12 -11 -10 -11 -10 -10 -9 -9 -9 -9
-10 -10 -11 -11 -11 -11 -12 -12 -12 -13 -14 -14 -15 -16 -16 -16 -16 -16 -17 -17 -18 -20 -20 -20 -20 -19 -19 -18 -17 -17 -17 -17 -15 -14 -13 -12 -11 -10 -11 -11 -10 -10 -9 -9 -9
-10 -11 -11 -11 -11 -12 -12 -12 -13 -13 -14 -15 -15 -16 -17 -17 -17 -17 -17 -18 -19 -20 -20 -20 -20 -20 -19 -18 -18 -17 -17 -17 -16 -15 -13 -12 -11 -10 -11 -11 -10 -10 -9 -9 -9
-11 -11 -11 -11 -11 -12 -12 -13 -13 -13 -14 -15 -16 -16 -16 -16 -16 -17 -17 -18 -18 -20 -20 -20 -20 -20 -19 -19 -18 -18 -17 -17 -17 -15 -14 -13 -12 -11 -11 -11 -10 -10 -9 -9 -9
-11 -11 -12 -11 -12 -12 -13 -13 -13 -14 -15 -16 -16 -17 -17 -16 -17 -17 -17 -18 -18 -19 -20 -20 -20 -20 -19 -19 -19 -18 -18 -17 -17 -16 -15 -13 -12 -11 -11 -11 -11 -10 -9 -9 -9
-11 -12 -12 -12 -12 -13 -13 -13 -13 -14 -15 -16 -16 -17 -17 -17 -17 -17 -18 -18 -19 -19 -20 -20 -20 -20 -20 -19 -19 -19 -18 -17 -17 -17 -16 -14 -12 -12 -11 -11 -11 -10 -9 -9 -9
-12 -12 -12 -12 -13 -13 -13 -13 -13 -14 -15 -16 -16 -17 -17 -17 -17 -18 -18 -18 -19 -19 -19 -20 -20 -21 -20 -20 -19 -19 -18 -19 -18 -17 -15 -15 -14 -13 -11 -11 -10 -10 -9 -10 -10
-12 -12 -12 -12 -13 -13 -13 -13 -14 -14 -15 -16 -16 -17 -17 -17 -18 -18 -18 -19 -19 -20 -20 -20 -21 -21 -20 -20 -20 -20 -20 -21 -19 -17 -16 -16 -14 -12 -11 -11 -11 -11 -10 -10 -10
-12 -12 -12 -13 -13 -13 -14 -14 -14 -14 -15 -15 -16 -16 -17 -17 -17 -18 -18 -19 -19 -20 -20 -21 -21 -21 -21 -21 -21 -20 -19 -20 -19 -18 -19 -17 -14 -12 -11 -11 -11 -11 -10 -11 -11
-12 -12 -13 -13 -13 -13 -14 -14 -14 -14 -15 -16 -16 -16 -17 -18 -18 -18 -18 -19 -19 -20 -21 -21 -21 -22 -22 -22 -21 -21 -21 -20 -20 -20 -19 -17 -15 -13 -11 -11 -11 -11 -11 -11 -11
-12 -12 -13 -13 -13 -13 -14 -14 -14 -15 -15 -16 -17 -17 -17 -17 -18 -18 -18 -19 -19 -20 -21 -20 -20 -21 -21 -21 -21 -21 -21 -20 -20 -20 -19 -17 -16 -13 -12 -11 -11 -11 -11 -11 -11
-13 -12 -13 -13 -13 -14 -14 -14 -14 -15 -16 -17 -17 -17 -17 -18 -17 -17 -18 -19 -19 -20 -20 -21 -21 -20 -21 -21 -21 -21 -20 -21 -21 -20 -18 -18 -17 -14 -12 -11 -11 -11 -11 -11 -11
-12 -13 -12 -13 -13 -14 -14 -14 -14 -15 -15 -17 -17 -17 -18 -18 -17 -17 -18 -18 -19 -19 -20 -20 -21 -21 -20 -21 -21 -21 -21 -21 -20 -21 -20 -18 -17 -16 -13 -12 -12 -12 -11 -11 -11
-12 -13 -12 -13 -13 -14 -14 -14 -14 -15 -15 -16 -17 -17 -17 -17 -18 -17 -17 -17 -18 -19 -20 -20 -20 -20 -20 -20 -20 -21 -21 -21 -21 -21 -19 -18 -16 -16 -14 -13 -13 -13 -11 -12 -10
-13 -13 -13 -13 -14 -14 -14 -14 -14 -14 -15 -15 -17 -17 -16 -16 -17 -17 -17 -18 -18 -19 -19 -19 -20 -20 -20 -20 -20 -21 -21 -21 -21 -20 -20 -18 -16 -16 -16 -15 -14 -13 -12 -11 -12
-13 -13 -13 -13 -14 -14 -14 -14 -14 -15 -14 -15 -16 -17 -17 -17 -17 -16 -17 -18 -18 -18 -19 -19 -20 -20 -20 -20 -20 -20 -20 -21 -20 -20 -18 -17 -17 -17 -15 -15 -13 -13 -12 -12 -12
-14 -14 -14 -13 -14 -14 -15 -15 -14 -14 -15 -15 -15 -16 -16 -17 -17 -17 -17 -18 -18 -18 -18 -18 -18 -18 -19 -19 -19 -19 -20 -19 -19 -18 -18 -16 -16 -16 -15 -14 -14 -13 -13 -12 -12
Height
5842 5838 5833 5828 5822 5815 5808 5801 5794 5788 5782 5775 5767 5760 5753 5745 5740 5738 5738 5739 5738 5737 5738 5738 5741 5748 5754 5760 5767 5775 5777 5787 5798 5805 5817 5821 5828 5835 5842 5847 5850 5859 5863 5868 5873
5838 5833 5828 5822 5815 5808 5801 5793 5786 5779 5771 5763 5755 5746 5740 5735 5733 5732 5731 5730 5729 5728 5728 5728 5729 5731 5737 5743 5751 5758 5766 5778 5787 5795 5805 5811 5819 5827 5833 5841 5845 5852 5858 5865 5868
5834 5828 5822 5816 5809 5802 5793 5785 5777 5769 5761 5753 5743 5735 5731 5729 5728 5725 5724 5721 5720 5718 5717 5718 5718 5719 5721 5726 5734 5746 5755 5765 5770 5780 5794 5800 5808 5815 5825 5832 5840 5847 5853 5858 5862
5829 5823 5817 5810 5802 5794 5786 5777 5768 5760 5752 5743 5734 5729 5725 5723 5721 5718 5715 5712 5710 5706 5705 5705 5707 5708 5707 5711 5719 5729 5737 5745 5755 5771 5781 5790 5799 5805 5817 5825 5830 5832 5843 5852 5858
5825 5818 5811 5804 5796 5787 5779 5770 5761 5752 5744 5736 5728 5723 5720 5716 5713 5710 5707 5705 5701 5697 5695 5696 5695 5696 5694 5695 5702 5714 5722 5731 5747 5758 5771 5778 5786 5798 5806 5813 5822 5829 5837 5846 5853
5821 5814 5807 5799 5790 5780 5772 5763 5754 5745 5737 5728 5721 5717 5713 5710 5706 5703 5700 5698 5694 5690 5687 5686 5687 5686 5684 5682 5688 5697 5706 5719 5733 5746 5758 5768 5776 5787 5801 5805 5814 5822 5830 5839 5847
5816 5810 5802 5794 5786 5776 5766 5758 5749 5739 5730 5722 5716 5711 5707 5703 5699 5696 5693 5690 5687 5683 5680 5679 5679 5678 5677 5673 5675 5685 5698 5708 5720 5735 5747 5757 5765 5781 5790 5794 5804 5814 5823 5832 5840
5813 5806 5798 5790 5781 5771 5760 5752 5743 5733 5724 5717 5711 5706 5701 5697 5693 5689 5686 5682 5678 5675 5673 5672 5672 5671 5671 5669 5669 5675 5685 5695 5711 5723 5738 5747 5764 5766 5777 5787 5798 5805 5816 5826 5834
5809 5802 5794 5786 5777 5767 5756 5746 5738 5728 5719 5712 5706 5701 5697 5692 5688 5683 5679 5675 5671 5666 5663 5662 5662 5664 5665 5664 5665 5669 5679 5688 5701 5714 5728 5739 5747 5753 5766 5776 5788 5798 5810 5820 5829
5805 5798 5790 5781 5772 5762 5753 5742 5730 5722 5714 5707 5701 5698 5692 5686 5681 5677 5672 5667 5662 5657 5654 5654 5654 5655 5658 5660 5662 5663 5670 5679 5689 5704 5716 5725 5736 5744 5758 5768 5780 5791 5803 5813 5822
5802 5794 5785 5777 5767 5758 5748 5739 5730 5720 5710 5703 5697 5691 5685 5681 5675 5671 5667 5661 5653 5646 5643 5643 5646 5648 5650 5653 5656 5661 5666 5672 5680 5689 5703 5713 5724 5736 5749 5758 5770 5781 5794 5806 5815
5798 5790 5781 5773 5763 5753 5744 5734 5724 5715 5707 5699 5693 5687 5681 5675 5671 5666 5662 5655 5646 5638 5635 5635 5638 5640 5644 5648 5652 5657 5662 5667 5676 5684 5695 5704 5717 5728 5738 5751 5762 5775 5788 5799 5808
5794 5786 5778 5769 5760 5750 5741 5731 5721 5711 5704 5696 5689 5683 5678 5672 5667 5663 5657 5649 5641 5636 5633 5632 5633 5636 5638 5643 5648 5652 5656 5661 5668 5674 5687 5697 5708 5723 5734 5743 5755 5766 5779 5792 5804
5790 5782 5775 5766 5758 5747 5738 5727 5718 5708 5699 5693 5686 5680 5674 5668 5664 5658 5652 5648 5639 5634 5632 5631 5631 5633 5635 5638 5643 5648 5650 5656 5662 5670 5681 5688 5705 5717 5726 5737 5749 5762 5776 5787 5798
5787 5779 5771 5761 5753 5744 5735 5724 5715 5705 5696 5689 5681 5674 5669 5665 5659 5655 5649 5643 5638 5633 5631 5630 5629 5631 5632 5634 5639 5642 5647 5652 5657 5664 5670 5682 5694 5709 5717 5727 5741 5756 5770 5781 5792
5784 5776 5768 5760 5751 5742 5732 5722 5712 5704 5693 5685 5677 5671 5667 5660 5655 5650 5645 5640 5635 5630 5627 5624 5623 5625 5627 5631 5634 5638 5643 5648 5653 5659 5664 5674 5689 5698 5708 5725 5741 5754 5765 5776 5787
5781 5773 5764 5756 5748 5738 5729 5720 5710 5700 5693 5684 5675 5668 5663 5657 5651 5646 5641 5637 5633 5628 5623 5620 5619 5619 5620 5625 5629 5633 5637 5643 5649 5653 5666 5671 5674 5692 5714 5725 5737 5749 5761 5772 5782
5777 5770 5761 5753 5745 5735 5726 5718 5708 5698 5689 5680 5672 5665 5659 5654 5648 5642 5637 5631 5627 5624 5620 5616 5615 5614 5616 5619 5622 5626 5632 5640 5643 5651 5662 5663 5668 5689 5703 5712 5727 5741 5754 5765 5776
5774 5766 5758 5750 5742 5733 5724 5715 5706 5695 5686 5678 5670 5662 5656 5648 5642 5636 5631 5626 5622 5618 5617 5613 5610 5610 5609 5612 5617 5621 5626 5631 5636 5643 5650 5658 5670 5683 5690 5704 5715 5729 5743 5756 5764
5771 5763 5756 5747 5738 5729 5721 5712 5703 5693 5682 5672 5664 5658 5651 5645 5639 5632 5624 5620 5617 5614 5612 5610 5608 5605 5605 5608 5612 5615 5619 5626 5632 5639 5647 5656 5662 5673 5685 5694 5709 5720 5734 5748 5761
5767 5759 5752 5744 5735 5726 5717 5708 5699 5690 5679 5670 5661 5653 5647 5640 5635 5628 5621 5616 5612 5609 5608 5607 5606 5606 5603 5604 5607 5610 5615 5621 5627 5633 5642 5653 5659 5672 5681 5691 5703 5717 5732 5744 5758
5764 5757 5748 5740 5734 5722 5714 5704 5695 5686 5677 5666 5659 5651 5644 5638 5633 5625 5617 5612 5608 5606 5603 5603 5604 5603 5603 5602 5602 5604 5607 5612 5618 5627 5636 5646 5657 5666 5676 5684 5701 5716 5729 5741 5754
5762 5755 5747 5739 5730 5721 5710 5703 5693 5684 5676 5665 5656 5649 5643 5637 5630 5623 5616 5609 5606 5604 5600 5601 5600 5599 5599 5597 5596 5596 5599 5602 5611 5618 5626 5644 5656 5658 5668 5680 5694 5711 5724 5735 5746
5758 5750 5742 5735 5727 5717 5708 5701 5693 5681 5673 5665 5656 5648 5641 5636 5630 5623 5617 5610 5604 5600 5600 5598 5597 5595 5594 5590 5587 5587 5589 5594 5600 5608 5620 5634 5646 5654 5665 5675 5689 5702 5718 5727 5739
5753 5747 5738 5731 5722 5713 5705 5697 5690 5681 5673 5664 5655 5646 5640 5634 5630 5622 5617 5611 5605 5600 5598 5596 5593 5591 5590 5589 5587 5585 5584 5586 5592 5603 5612 5627 5635 5640 5649 5671 5684 5696 5713 5727 5737
5749 5742 5735 5729 5720 5711 5704 5695 5688 5679 5670 5661 5653 5645 5639 5633 5628 5621 5616 5611 5606 5602 5597 5595 5593 5591 5590 5587 5587 5586 5586 5589 5594 5603 5612 5622 5630 5640 5652 5661 5679 5695 5711 5723 5735
5746 5741 5732 5725 5717 5708 5701 5693 5686 5678 5668 5659 5652 5645 5638 5633 5627 5622 5616 5610 5608 5604 5599 5598 5596 5593 5591 5589 5587 5589 5590 5595 5602 5608 5616 5624 5632 5639 5652 5662 5678 5694 5709 5720 5734
Wind_Speed
29 31 34 38 43 46 46 45 44 42 43 46 45 46 44 46 34 22 22 22 22 25 30 36 50 61 65 65 66 62 64 64 61 59 53 50 50 47 52 47 46 40 41 39 36
30 34 37 42 46 47 47 46 43 42 44 43 45 41 36 24 19 22 23 25 28 29 27 29 35 50 66 68 67 68 66 61 61 60 55 55 50 49 51 51 46 41 39 38 37
33 37 42 45 47 48 46 45 44 45 44 41 42 31 25 20 21 26 29 33 35 34 32 30 31 30 53 72 70 68 69 64 64 65 56 56 53 54 49 55 48 39 38 39 40
36 40 43 47 49 49 47 45 45 46 41 42 34 25 22 23 27 29 31 30 29 31 33 33 31 32 36 65 72 69 71 70 69 59 59 58 56 56 53 52 53 52 44 39 37
38 41 47 49 50 51 48 46 46 46 40 40 28 22 24 28 29 25 22 23 26 31 35 32 32 30 33 52 72 72 71 70 66 61 59 61 61 55 55 53 57 52 45 41 39
39 43 47 49 51 51 49 47 47 43 39 38 25 23 28 23 23 21 21 19 24 27 31 31 29 30 27 39 66 72 72 70 66 63 58 61 60 58 51 54 52 56 49 44 45
40 44 48 50 52 51 49 47 47 42 38 35 24 26 25 24 20 22 21 20 24 28 28 30 27 28 23 28 52 70 69 69 68 64 60 61 64 59 52 57 56 56 52 47 45
41 45 49 51 53 50 49 49 47 42 37 31 25 25 22 22 24 24 22 26 28 31 29 27 28 26 25 22 34 55 67 68 65 64 62 60 61 60 55 54 55 54 56 50 46
42 46 50 52 53 52 49 50 48 43 37 31 25 20 20 22 21 25 28 33 33 33 32 27 28 29 25 24 23 38 56 63 62 62 62 60 62 63 57 57 55 56 56 53 44
43 46 50 53 54 53 49 50 49 43 37 31 22 21 23 25 26 28 29 31 36 39 27 26 25 27 28 27 20 27 41 54 57 59 61 64 61 62 58 60 54 56 54 57 50
44 47 51 53 55 53 50 50 49 42 36 30 25 23 25 25 25 25 24 28 35 30 24 30 27 24 28 30 28 25 31 45 52 59 60 64 64 60 58 59 56 56 56 60 55
45 47 50 53 56 53 50 51 50 44 37 28 27 23 26 25 25 22 22 28 37 23 21 20 23 27 25 27 28 26 27 33 44 54 57 64 65 61 60 60 60 56 57 58 60
46 48 50 53 54 51 50 51 50 46 38 32 28 24 24 23 24 23 23 26 32 19 16 13 15 20 27 26 27 29 29 31 37 46 55 62 64 63 57 59 60 59 58 58 62
46 48 50 52 52 51 50 52 51 48 40 37 31 24 22 22 24 25 24 22 28 19 11 9 13 16 19 24 26 28 30 31 34 42 47 60 58 62 57 57 59 59 57 57 61
46 47 49 52 53 50 51 52 51 47 41 39 35 26 23 22 23 22 24 21 20 23 14 11 11 15 16 21 20 22 29 32 33 38 45 56 59 60 60 58 59 60 56 58 60
46 45 47 49 50 49 49 51 52 48 41 38 36 24 20 22 24 23 22 19 16 19 18 17 15 16 20 20 25 17 20 29 34 36 43 52 57 60 65 58 53 56 56 56 58
45 45 46 50 50 51 49 50 53 49 43 39 32 22 23 24 24 23 22 22 18 16 17 19 19 17 20 22 20 19 18 19 27 37 39 44 56 56 57 57 52 54 56 55 58
43 44 47 48 49 51 49 49 51 51 45 38 35 24 26 27 23 24 26 27 21 16 18 18 16 21 23 23 24 24 21 14 22 32 37 44 55 59 62 60 56 53 56 58 60
43 44 45 47 48 50 49 48 50 51 48 41 35 26 26 32 30 28 27 26 20 11 13 14 16 14 14 25 27 26 27 25 25 30 27 34 50 58 64 64 63 58 59 60 69
42 43 43 46 49 50 49 48 50 50 48 42 37 34 28 29 27 30 30 24 19 10 9 6 9 8 15 18 23 26 29 28 26 27 26 29 48 56 64 66 64 61 61 61 66
41 44 45 46 50 51 47 48 50 50 47 43 39 39 29 30 30 32 30 20 19 13 8 4 1 4 8 8 18 25 28 30 30 31 26 32 39 52 64 68 66 61 60 60 62
39 42 45 48 50 52 47 47 51 49 46 42 38 39 30 29 29 36 30 17 20 16 12 8 6 7 9 15 20 29 36 37 36 34 36 31 29 43 68 71 66 60 60 60 60
39 40 45 47 50 48 47 46 50 50 47 40 39 39 29 27 30 29 28 19 15 21 14 11 7 9 13 20 20 29 30 32 42 36 39 31 27 40 68 73 67 60 61 60 60
39 43 46 49 49 47 45 45 48 51 49 40 37 34 28 26 25 27 29 29 19 12 14 7 9 11 12 13 14 10 28 33 39 45 44 40 24 43 63 71 63 61 62 64 62
39 42 46 50 48 46 44 45 48 50 48 44 36 32 32 26 23 23 24 22 23 20 9 3 5 7 3 3 8 11 16 29 43 49 40 43 25 52 56 60 62 63 61 61 59
38 41 45 47 47 42 41 43 47 48 51 46 40 31 31 23 23 24 22 16 21 16 13 8 9 11 3 6 7 7 14 28 38 46 42 44 38 54 63 66 68 64 61 60 58
37 39 44 48 45 41 41 42 46 48 49 47 43 29 32 21 20 24 23 13 18 13 17 19 17 10 9 11 7 15 22 30 32 34 37 37 40 50 67 68 62 63 62 60 59
Wind_Direction
338 339 340 340 340 339 340 338 332 327 324 322 317 309 302 290 288 274 281 278 279 276 261 250 238 236 238 236 235 232 231 229 227 228 225 222 219 218 215 217 223 219 215 218 217
343 342 343 343 342 342 342 338 333 331 329 325 320 315 300 295 283 283 287 290 292 288 279 261 249 238 231 235 232 232 230 228 230 228 224 222 219 218 216 215 220 221 218 213 219
344 344 345 345 345 346 344 340 336 335 334 329 327 312 304 292 287 294 298 298 296 290 282 273 262 260 240 229 231 228 230 228 228 225 221 222 217 219 214 213 214 216 217 213 217
346 346 348 348 347 348 346 342 339 338 337 335 325 310 307 303 299 301 300 296 290 284 279 274 267 263 263 231 227 226 226 227 225 224 220 220 218 218 214 212 209 214 216 210 212
347 348 349 351 351 350 347 344 342 341 339 336 323 311 311 304 301 299 296 296 290 282 278 274 268 270 280 235 225 223 224 225 224 224 221 218 218 216 214 212 210 211 211 203 201
349 350 351 354 354 350 348 346 344 344 341 336 323 318 313 305 296 295 290 292 298 296 285 268 267 273 282 245 223 221 219 221 221 220 219 217 219 216 213 213 209 207 209 204 202
351 351 353 355 356 351 348 348 347 346 343 339 322 316 316 312 296 297 291 292 304 300 294 272 262 267 279 259 228 219 217 220 218 217 217 217 216 214 212 212 208 206 205 206 204
351 352 354 356 357 352 349 348 349 349 345 341 324 315 314 309 300 299 297 296 297 297 295 280 258 256 258 262 235 223 216 217 216 214 213 216 210 215 210 211 209 206 202 202 201
350 353 354 356 356 354 351 348 352 351 346 342 327 316 316 314 303 294 295 296 295 295 293 272 259 247 247 243 239 227 219 217 215 214 212 213 212 216 205 209 207 207 200 201 199
349 352 353 355 356 354 351 351 352 353 346 340 329 319 322 322 315 307 306 306 302 297 279 261 255 242 237 233 227 221 218 217 213 211 209 212 212 213 208 210 203 205 201 199 197
348 350 352 355 355 354 352 353 354 353 349 340 329 322 328 324 322 318 320 317 308 308 272 248 243 238 230 229 228 222 215 217 215 210 206 209 210 209 208 205 202 202 202 200 198
349 350 353 355 356 355 355 355 356 354 350 345 334 322 329 325 329 331 327 327 324 315 291 259 243 234 233 226 226 221 214 215 215 212 207 208 209 209 206 206 203 200 201 200 202
347 349 353 355 356 357 355 356 356 355 352 351 339 325 328 331 333 337 330 335 336 333 297 278 252 240 227 227 222 222 218 215 211 210 207 209 208 207 208 206 204 201 198 198 202
347 348 353 355 356 356 355 357 357 356 354 353 342 334 326 331 339 338 340 335 338 333 323 298 262 239 230 222 221 219 219 216 214 208 206 208 206 208 208 207 203 203 199 198 202
347 349 353 354 356 355 355 357 358 357 359 350 347 339 327 335 337 340 341 332 336 333 317 274 255 240 225 207 208 212 218 215 213 210 209 205 206 202 205 206 202 201 198 196 199
347 349 352 353 354 354 354 357 358 360 359 352 347 346 334 328 334 334 339 327 315 323 317 284 240 235 228 222 217 220 218 219 213 211 212 206 204 204 205 204 205 201 198 196 197
347 348 349 350 353 353 353 355 358 0 358 355 352 343 336 329 328 330 333 321 306 300 298 287 258 245 229 223 226 218 227 227 222 213 206 211 206 198 202 205 205 203 199 195 195
347 347 348 349 351 351 351 352 358 358 358 356 356 344 338 333 331 324 320 326 305 278 297 295 282 249 229 220 221 214 212 204 232 222 210 215 208 197 200 199 202 200 200 195 191
346 347 348 348 349 350 351 353 357 357 356 356 356 349 342 336 337 330 323 321 317 286 288 298 288 269 240 223 218 215 216 216 222 213 206 221 206 194 199 203 200 198 196 194 192
346 346 347 349 348 349 351 353 357 357 355 354 353 356 345 338 332 332 326 323 318 297 281 291 285 281 247 233 216 216 218 218 224 210 215 209 201 195 196 201 201 198 194 193 191
344 343 347 349 349 349 352 352 356 358 355 353 351 350 348 339 338 333 340 326 316 292 272 258 238 264 234 213 231 229 229 227 226 217 204 207 210 189 192 203 202 200 193 191 191
343 343 347 348 349 349 351 351 354 358 358 353 350 351 355 341 344 351 346 330 320 296 288 234 248 267 251 238 214 220 229 227 224 222 205 193 207 197 190 200 201 196 192 190 190
342 343 342 346 349 349 349 351 353 356 359 355 351 353 358 346 350 356 347 342 323 299 296 291 336 293 282 288 238 230 225 219 216 209 196 190 198 193 192 195 198 193 190 189 192
338 339 339 344 351 348 349 352 354 354 356 358 355 353 353 351 355 349 354 352 346 292 326 325 310 294 297 317 277 224 227 219 208 199 182 175 192 191 194 193 192 189 188 189 194
336 339 340 344 349 347 348 350 353 352 355 357 359 355 353 348 355 348 348 345 345 3 29 26 323 302 295 313 262 274 223 212 197 188 185 164 192 179 176 178 185 188 187 190 194
333 337 340 344 348 346 348 348 351 352 353 357 359 357 356 348 347 356 347 352 357 7 33 44 50 19 316 211 254 242 204 190 188 183 171 178 181 173 176 175 187 186 187 191 193
330 333 337 340 346 347 348 347 349 351 352 356 355 357 356 355 359 359 354 333 9 38 57 36 17 7 336 284 226 204 193 173 173 172 170 179 184 171 175 179 178 180 187 189 194